Flag for Canada Weather past 2 weeks in Pickering, Ontario, Canada

Now
16 °F

Passing clouds.


Feels Like: 5 °F
Forecast: 8 / 18 °F
Wind: 8 mph from North

Location: Toronto Buttonville

Current Time: Jan 25, 2015 at 2:26:03 PM

Latest Report: Jan 25, 2015 at 2:00 PM


Visibility: 15 mi

Pressure: 29.98 "Hg

Humidity: 41%

Dew point: -4 °F

Location of PickeringLocation

Historic Weather in Pickering — Graph

°F

Pickering temperature yesterday

Maximum temperature yesterday: 32 °F (at 8:00 PM)
Minimum temperature yesterday: 23 °F (at 12:00 AM)
Average temperature yesterday: 28 °F

Past Weeks' High & Low Weather Summary

 TemperatureHumidityPressure
High41 °F (Jan 18, 7:00 AM)100% (Jan 12, 7:00 AM)30.85 "Hg (Jan 12, 7:00 AM)
Low-6 °F (Jan 13, 5:00 AM)30% (Jan 13, 4:00 PM)29.47 "Hg (Jan 24, 3:00 PM)
Average20 °F73%30.11 "Hg
* Reported Jan 10 1:00 PM — Jan 25 1:00 PM, Pickering, Weather by CustomWeather, © 2014

Note: Actual official high and low records may vary slightly from our data, if they occured in-between our weather recording intervals... More about our weather records

Advertising

Pickering weather history for previous 24 hours

 ConditionsComfort  
Time TempWeatherWind HumidityBarometerVisibility
1:00 PM
Jan 25
16 °FPassing clouds.8 mph45%29.98 "Hg15 mi
12:00 PM14 °FPassing clouds.9 mph48%29.96 "Hg15 mi
11:00 AM12 °FPassing clouds.14 mph57%29.97 "Hg15 mi
10:00 AM9 °FPassing clouds.13 mph66%29.96 "Hg15 mi
9:00 AM7 °FPassing clouds.15 mph66%29.94 "Hg15 mi
8:00 AM7 °FPassing clouds.18 mph72%29.90 "Hg15 mi
7:50 AMN/APassing clouds.16 mphN/AN/A15 mi
7:00 AM9 °FLight snow. Passing clouds.12 mph72%29.87 "Hg14 mi
6:00 AM9 °FSnow flurries. Passing clouds.12 mph78%29.83 "Hg14 mi
5:00 AM12 °FSnow flurries. Passing clouds.16 mph79%29.78 "Hg14 mi
4:50 AMN/ASnow flurries.14 mphN/AN/A14 mi
4:00 AM14 °FPassing clouds.15 mph73%29.74 "Hg15 mi
3:00 AM18 °FPassing clouds.22 mph73%29.68 "Hg15 mi
2:00 AM23 °FPassing clouds.18 mph74%29.62 "Hg15 mi
1:00 AM25 °FSnow flurries. Passing clouds.23 mph74%29.59 "Hg14 mi
12:00 AM28 °FSnow flurries. Passing clouds.18 mph80%29.55 "Hg14 mi
11:00 PM
Jan 24
30 °FPassing clouds.12 mph75%29.52 "Hg15 mi
10:00 PM32 °FPassing clouds.9 mph80%29.50 "Hg15 mi
9:00 PM32 °FSnow flurries. Passing clouds.8 mph87%29.50 "Hg10 mi
8:00 PM32 °FSnow flurries. Passing clouds.8 mph87%29.49 "Hg10 mi
7:00 PM30 °FLight snow. Passing clouds.6 mph93%29.49 "Hg8 mi
6:00 PM30 °FLight snow. Low clouds.5 mph93%29.49 "Hg1 mi
5:52 PMN/ALight snow.6 mphN/AN/A1 mi
5:00 PM30 °FLight mixture of precip. Low clouds.6 mph93%29.48 "Hg2 mi
4:00 PM28 °FSnow flurries. Low clouds.6 mph100%29.47 "Hg1 mi
3:00 PM28 °FLight snow. Low clouds.5 mph93%29.47 "Hg1 mi
2:00 PM28 °FLight snow. Low clouds.7 mph93%29.48 "Hg1 mi
Weather by CustomWeather, © 2014

See weather overviewHow to use our weather pages